Погода в Вильнюсе

Поиск расширенной информации на нашем сайте:

Полезная информация:

Новости сайта



02.01.2020
Опубликован Долгосрочный прогноз погоды по городам России и ближнего зарубежья на январь 2020 года.
Карты: Прогноз на январь и февраль 2020 года, Сравнение прогнозируемой аномалии приземной температуры воздуха на январь 2020 года по разным моделям.




Погода в Вильнюсе - сегодня

Время (UTC), дата Ветер
(°,м/с) 
Видим.   Явления Облачность Т
(°С)
Тd
(°С)
f(%) Тe
(°С)
Pmin
(гПа)
dP
(гПа)
Po
(мм)
O2
(г/м3)
Тmin Tmax R s Состояние
почвы
21 22.10.20 240 (ЮЗ) 3-5{09}  20000 м    3/3 1500 м 
[Sc]
+13.1 +10 81 +14  1011.8  0.6  745  285           
00 23.10.20 220 (ЮЗ) 4-6{08}  19000 м    9/4 2000 м средняя 
[Sc|Ac trans]
+10.9 +10.1 95 +11  1011.7  -0.3  745  287           
03 23.10.20 200 (Ю) 3-5{06}  9000 м  дымка  9/0 средняя 
[Ac As]
+10.8 +10.5 98 +12  1010.1  -1.6  743  286           
06 23.10.20 200 (Ю) 4-6{07}  8000 м  дымка  6/4 200 м средняя 
[St|Ac As]
+10.7 +10.4 98 +12  1008.8  -1.2  743  286  +10.2        влажная 
09 23.10.20 230 (ЮЗ) 4-8{09}  19000 м    9/9 420 м 
[St]
+13.5 +10.7 83 +15  1009.1  0.4  743  283           
12 23.10.20 240 (ЮЗ) 6-12{12}  20000 м    9/9 1050 м 
[Sc]
+15.5 +9.5 67 +16  1008.9  743  282           
15 23.10.20 270 (З) 4-6{13}  20000 м    1/1 1000 м 
[Sc]
+12.6 +7.9 73 +12  1009.6  0.5  743  285           
18 23.10.20 250 (З) 2-4{07}  20000 м    9/0 средняя, верхняя 
[Ac trans|Ci fib]
+9.8 +7.6 86 +10  1010.8  744  288    +15.8       
21 23.10.20 230 (ЮЗ) 2-4{04}  20000 м    9/0 средняя 
[Ac As]
+7.7 +6.6 93 +8  1011.4  0.4  744  291           
00 24.10.20 210 (ЮЗ) 2-3{04}  7000 м  дымка  10/0 средняя 
[Ac und]
+6.7 +6.5 99 +7  1011.3  -0.2  744  292           
03 24.10.20 160 (Ю) 2-3{03}  6000 м  дымка  9/0 средняя 
[Ac As]
+7 +6.8 99 +7  1010.5  -0.7  744  291           
06 24.10.20 тихо () -2{04}  1600 м  дождь{морось}  10/10 60 м 
[Ns]
+7.6 +7.5 99 +8  1010.5  744  290  +6.2      влажная 
09 24.10.20 170 (Ю) 1-3{03}  3100 м  дымка{дождь, туман}  10/10 60 м 
[St]
+9.2 +9.1 99 +10  1009.8  -0.5  743  288           
12 24.10.20 240 (ЮЗ) 2-4{04}  19000 м  {дождь, туман}  9/9 270 м 
[St]
+11.4 +10.5 94 +14  1010.2  0.5  744  286         
15 24.10.20 250 (З) 1-2{06}  17000 м    4/3 1000 м средняя 
[Sc|Ac trans]
+10.4 +9.5 94 +13  1011.1  0.8  744  287           
18 24.10.20 220 (ЮЗ) 3-4{05}  12000 м    9/9 1080 м 
[Cu Sc]
+9.4 +9.2 99 +9  1011.9  0.7  745  288    +11.8     
21 24.10.20 250 (З) 3-6{06}  20000 м  {дождь}  9/9 2000 м 
[Sc]
+9.9 +9.4 97 +10  1012.7  0.8  745  288           
00 25.10.20 250 (З) 3-5{06}  18000 м  {дождь}  9/9 420 м 
[Cu Sc]
+10 +9.3 95 +10  1013.6  0.9  746  288      0.0     
03 25.10.20 220 (ЮЗ) 1-2{06}  9000 м  дымка  6/6 660 м 
[Sc]
+9 +8.9 99 +10  1014.5  0.8  747  290           
06 25.10.20 тихо () -2{03}  2200 м  дымка{туман}  9/9 60 м 
[St]
+8 +7.8 99 +8  1016  1.4  748  291  +7.4    0.0    влажная 
09 25.10.20 210 (ЮЗ) 3-5{05}  12000 м  {туман}  9/9 240 м 
[St]
+10.1 +9.5 96 +11  1016.9  1.1  749  289           
12 25.10.20 170 (Ю) 3-6{06}  20000 м  {туман}  6/6 400 м 
[St]
+11.6 +9.1 85 +11  1016.6  -0.2  748  288           
15 25.10.20 150 (ЮВ) 2-3{06}  19000 м    1/0 средняя 
[Ac trans]
+10.2 +8.9 92 +10  1016.7  748  289           
18 25.10.20 150 (ЮВ) 2-3{04}  5000 м  дымка  ясно 
+7.7 +7.6 99 +8  1017.2  0.3  749  292    +12.4       
21 25.10.20 160 (Ю) 4-6{08}  7000 м  дымка  10/10 100 м 
[St]
+9.1 +9 99 +8  1017.3  0.2  749  290           
Время (UTC), дата Ветер
(°,м/с) 
Видим.   Явления Облачность Т
(°С)
Тd
(°С)
f(%) Тe
(°С)
Pmin
(гПа)
dP
(гПа)
Po
(мм)
O2
(г/м3)
Тmin Tmax R s Состояние
почвы

Для получения пояснительной информации подведите курсор к названию столбца.

ПОГОДА в Вильнюсе - архив

Всё, что Вы хотите узнать о погоде в Вильнюсе - удобно и подробно!

Выберите нужную дату (начиная с 1 января 2019* года) и нажмите кнопку "Найти".
Будут отображены архивные сводки погоды по пункту Вильнюс, начиная с указанной даты.


Отображать данные в формате CSV (для использования в таблицах Excel)


Внимание! Наш архив погоды предназначен исключительно для личного некоммерческого использования в познавательных целях. Если Вам необходимы официальные справки о состоянии погоды (для производственных, юридических, коммерческих и т.п. целей), обращайтесь в органы Росгидромета.

*Примечание: данная дата относится к архиву по метеостанциям СССР (Россия, СНГ, Балтия).
Архив по метеостанциям Зарубежной Европы и Азии (кроме Китая) хранится 10 дней, по другим регионам земного шара (Китай, Африка, Америка, Австралия, Океания) - 1 день.

Вильнюс - район местоположения метеостанции


Название, широта, долгота, высота метеостанции:
Вильнюс 54.6°ш. 25.1°д. 156 м над ур. моря [Литва]

Дополнительная информация

В oтличие oт бoльшинства пoгoдных сайтoв мы публикуем пoдрoбную метеoинфoрмацию в детальнoм прoфессиoнальнoм фoрмате.

Характеристики температуры и влажнoсти вoздуха измеряются на высoте 2 м в тени вдали oт зданий и деревьев.
Скoрoсть ветра измеряется на высoте 10 м (на урoвне рoста челoвека скoрoсть ветра ниже в 1.5-2 раза). Если метеoстанция нахoдится в гoрoде или в лесу, тo скoрoсть ветра занижена на 2-4 м/с пo сравнению с oткрытым местoм. Скoрoсть ветра над акватoриями крупных рек и oзёр, а также на вершинах хoлмoв на 2-5 м/с выше, чем в oбычных услoвиях.
Атмoсфернoе давление в разных тoчках местнoсти мoжет значительнo oтличаться oт давления на метеoстанции, в зависимoсти oт услoвий рельефа (при пoдъёме на 10 м давление пoнижается примернo на 1 мм рт.ст.).